This is the latest recevied weather packets stored in our database for station/object K4OAM-13. If no packets are shown the sender has not sent any weather packets the latest 10 day(s).
| Time | Temp. | Humidity | Pressure | Rain* | Wind** | Luminosity | Snow |
|---|---|---|---|---|---|---|---|
| 1777622825 | 4.44° C | 95% | 1012.6 hPa | - | - | - | - |
| 1777622224 | 4.44° C | 96% | 1012.3 hPa | - | - | - | - |
| 1777621625 | 4.44° C | 99% | 1012.2 hPa | - | - | - | - |
| 1777621024 | 5° C | 99% | 1011.8 hPa | - | - | - | - |
| 1777620424 | 5° C | 10% | - | - | - | - | - |
| 1777619824 | 5° C | 99% | 1011.3 hPa | - | - | - | - |
| 1777619225 | 5° C | 99% | 1011.3 hPa | - | - | - | - |
| 1777618624 | 5° C | 99% | 1011.1 hPa | - | - | - | - |
| 1777618024 | 5° C | 10% | - | - | - | - | - |
| 1777617425 | 5° C | 10% | - | - | - | - | - |
| 1777616824 | 5° C | 99% | 1010.5 hPa | - | - | - | - |
| 1777616225 | 5° C | 99% | 1010.6 hPa | - | - | - | - |
| 1777615624 | 5° C | 10% | - | - | - | - | - |
| 1777615024 | 5° C | 99% | 1010.3 hPa | - | - | - | - |
| 1777614424 | 5.56° C | 99% | 1010 hPa | - | - | - | - |
| 1777613824 | 5.56° C | 98% | 1009.8 hPa | - | - | - | - |
| 1777613224 | 5.56° C | 99% | 1009.8 hPa | - | - | - | - |
| 1777612624 | 5.56° C | 96% | 1009.5 hPa | - | - | - | - |
| 1777612024 | 6.11° C | 97% | 1009.2 hPa | - | - | - | - |
| 1777611425 | 5.56° C | 98% | 1009.2 hPa | - | - | - | - |
| 1777610825 | 6.11° C | 94% | 1008.9 hPa | - | - | - | - |
| 1777610224 | 6.11° C | 92% | 1008.9 hPa | - | - | - | - |
| 1777609624 | 6.11° C | 90% | 1008.7 hPa | - | - | - | - |
| 1777609025 | 6.67° C | 89% | 1008.5 hPa | - | - | - | - |
| 1777608424 | 6.67° C | 87% | 1008.5 hPa | - | - | - | - |
* Rain since midnight (hover to see other rain measurements)
** Current wind speed in m/s (hover to see current wind gust speed)